Overview Statistics Trail Chart Weather Telemetry Raw packets
 

This is the latest recevied weather packets stored in our database for station/object NL3D. If no packets are shown the sender has not sent any weather packets the latest 10 day(s).

<< 51 52 53 54 55 56 57 >>
Time Temp. Humidity Pressure Rain* Wind** Luminosity Snow
1777337535 7.78° C 64% 1009.5 hPa 0 mm - 127 W/m² -
1777337231 7.78° C 65% 1009.4 hPa 0 mm - 119 W/m² -
1777336932 7.78° C 64% 1009.8 hPa 0 mm - 113 W/m² -
1777336628 7.78° C 64% 1009.3 hPa 0 mm - 84 W/m² -
1777336327 7.78° C 64% 1009.5 hPa 0 mm - 70 W/m² -
1777336022 7.78° C 64% 1009.7 hPa 0 mm - 73 W/m² -
1777335719 7.78° C 64% 1009.5 hPa 0 mm - 72 W/m² -
1777335416 7.78° C 65% 1009.9 hPa 0 mm - 65 W/m² -
1777335114 7.22° C 66% 1009.8 hPa 0 mm - 65 W/m² -
1777334811 7.22° C 66% 1010 hPa 0 mm - 68 W/m² -
1777334509 7.22° C 65% 1010 hPa 0 mm - 50 W/m² -
1777334205 7.22° C 66% 1009.8 hPa 0 mm - 39 W/m² -
1777333904 7.78° C 66% 1009.8 hPa 0 mm - 39 W/m² -
1777333602 7.78° C 65% 1009.8 hPa 0 mm - 44 W/m² -
1777333298 8.33° C 59% 1009.9 hPa 0 mm - 59 W/m² -
1777332996 8.33° C 56% 1009.8 hPa 0 mm - 57 W/m² -
1777332694 8.33° C 55% 1009.6 hPa 0 mm - 59 W/m² -
1777332390 8.33° C 55% 1009.8 hPa 0 mm - 67 W/m² -
1777332087 8.33° C 54% 1009.6 hPa 0 mm - 68 W/m² -
1777331785 8.33° C 55% 1009.7 hPa 0 mm - 67 W/m² -
1777331481 8.33° C 56% 1009.5 hPa 0 mm - 76 W/m² -
1777331180 7.78° C 57% 1009.6 hPa 0 mm - 70 W/m² -
1777330876 7.78° C 59% 1009.8 hPa 0 mm - 80 W/m² -
1777330573 7.78° C 58% 1010 hPa 0 mm - 80 W/m² -
1777330270 7.78° C 59% 1009.8 hPa 0 mm - 83 W/m² -

* Rain latest hour (hover to see other rain measurements)
** Current wind speed in m/s (hover to see current wind gust speed)